Location: Lane
(33.5226°N, 79.8788°W)
Time: 19:47:37
(UTC+00:00)

Courier 1B Rocket - Pass Details

Date: 14 October 2022
Orbit: 920 x 1202 km, 28.3° (Epoch: 01 December)

Event Time Altitude Azimuth Distance (km) Brightness Sun altitude
Rises 20:58:08 0° 259° (WSW) 4,082 9.6 20.8°
Reaches altitude 10° 21:01:04 10° 255° (WSW) 3,102 9.6 20.2°
Maximum altitude 21:08:36 59° 179° (S) 1,308 6.2 18.8°
Drops below altitude 10° 21:15:44 10° 101° (ESE) 2,938 7.1 17.4°
Sets 21:18:27 0° 98° (E) 3,852 7.6 16.9°
